,,PA_Meas_PMT16A,,PR_Meas_QMR101_102,,RH_Meas_QMH101,,SR_Meas_QMS101,,TA_Meas_QMH101,,GenWind,,GenWind,
time,status,PA,status,PR,status,RH,status,SR,status,TA,status,DirAvg,status,SpdAvg,
2010-10-05, 00:00:05,VALID,917.033,VALID,0,VALID,96.9546,VALID,0,VALID,19.2528,VALID,108,VALID,0.504297,
2010-10-05, 00:01:05,VALID,917.003,VALID,0,VALID,97.0003,VALID,0,VALID,19.2933,VALID,108,VALID,0.379687,
2010-10-05, 00:02:05,VALID,917.015,VALID,0,VALID,97.0232,VALID,0,VALID,19.2918,VALID,108,VALID,0.272266,
2010-10-05, 00:03:05,VALID,916.984,VALID,0,VALID,97.0156,VALID,0,VALID,19.3113,VALID,108,VALID,0.226563,
2010-10-05, 00:04:05,VALID,916.984,VALID,0,VALID,97.0461,VALID,0,VALID,19.3113,VALID,108,VALID,0.365625,
2010-10-05, 00:05:05,VALID,916.996,VALID,0,VALID,97.0385,VALID,0,VALID,19.3323,VALID,108,VALID,0,
2010-10-05, 00:06:05,VALID,916.977,VALID,0,VALID,97.0613,VALID,0,VALID,19.3308,VALID,108,VALID,0,
2010-10-05, 00:07:05,VALID,916.953,VALID,0,VALID,97.0385,VALID,0,VALID,19.3518,VALID,108,VALID,0.24375,
2010-10-05, 00:08:05,VALID,916.983,VALID,0,VALID,97.0613,VALID,0,VALID,19.3713,VALID,108,VALID,0,
2010-10-05, 00:09:05,VALID,916.942,VALID,0,VALID,97.0766,VALID,0,VALID,19.3698,VALID,108,VALID,0.00078125,
2010-10-05, 00:10:05,VALID,916.971,VALID,0,VALID,97.0613,VALID,0,VALID,19.3698,VALID,108,VALID,0.249219,
2010-10-05, 00:11:05,VALID,916.933,VALID,0,VALID,97.0537,VALID,0,VALID,19.3893,VALID,108,VALID,0.021875,
2010-10-05, 00:12:05,VALID,916.928,VALID,0,VALID,97.0613,VALID,0,VALID,19.3698,VALID,108,VALID,0,
2010-10-05, 00:13:05,VALID,916.907,VALID,0,VALID,97.069,VALID,0,VALID,19.3698,VALID,108,VALID,0,
2010-10-05, 00:14:05,VALID,916.885,VALID,0,VALID,97.0613,VALID,0,VALID,19.3893,VALID,108,VALID,0,
2010-10-05, 00:15:05,VALID,916.908,VALID,0,VALID,97.0766,VALID,0,VALID,19.4298,VALID,108,VALID,0,
2010-10-05, 00:16:05,VALID,916.867,VALID,0,VALID,97.0613,VALID,0,VALID,19.3893,VALID,108,VALID,0,
2010-10-05, 00:17:05,VALID,916.82,VALID,0,VALID,97.0766,VALID,0,VALID,19.4283,VALID,108,VALID,0,
2010-10-05, 00:18:05,VALID,916.806,VALID,0,VALID,97.0613,VALID,0,VALID,19.4688,VALID,108,VALID,0.148047,
2010-10-05, 00:19:05,VALID,916.774,VALID,0,VALID,97.0766,VALID,0,VALID,19.4673,VALID,108,VALID,0.0140625,
2010-10-05, 00:20:05,VALID,916.753,VALID,0,VALID,97.0461,VALID,0,VALID,19.4283,VALID,108,VALID,0.657812,
2010-10-05, 00:21:05,VALID,916.74,VALID,0,VALID,97.0232,VALID,0,VALID,19.4283,VALID,108,VALID,0.0535156,
2010-10-05, 00:22:05,VALID,916.72,VALID,0,VALID,97.0461,VALID,0,VALID,19.4673,VALID,108,VALID,0,
2010-10-05, 00:23:05,VALID,916.694,VALID,0,VALID,97.0461,VALID,0,VALID,19.5078,VALID,108,VALID,0,
2010-10-05, 00:24:05,VALID,916.69,VALID,0,VALID,97.0156,VALID,0,VALID,19.4688,VALID,108,VALID,0,
2010-10-05, 00:25:05,VALID,916.665,VALID,0,VALID,96.9775,VALID,0,VALID,19.4088,VALID,108,VALID,0,
2010-10-05, 00:26:05,VALID,916.673,VALID,0,VALID,97.0003,VALID,0,VALID,19.4088,VALID,108,VALID,0.0117188,
2010-10-05, 00:27:05,VALID,916.677,VALID,0,VALID,97.008,VALID,0,VALID,19.4088,VALID,108,VALID,0,
2010-10-05, 00:28:05,VALID,916.65,VALID,0,VALID,97.0308,VALID,0,VALID,19.4088,VALID,108,VALID,0.140625,
2010-10-05, 00:29:05,VALID,916.645,VALID,0,VALID,97.0003,VALID,0,VALID,19.4088,VALID,108,VALID,0.134766,
2010-10-05, 00:30:05,VALID,916.621,VALID,0,VALID,97.0156,VALID,0,VALID,19.4298,VALID,108,VALID,0.0902344,
2010-10-05, 00:31:05,VALID,916.603,VALID,0,VALID,97.008,VALID,0,VALID,19.4283,VALID,108,VALID,0.286328,
2010-10-05, 00:32:05,VALID,916.594,VALID,0,VALID,97.0308,VALID,0,VALID,19.4088,VALID,108,VALID,0.0851562,
2010-10-05, 00:33:05,VALID,916.587,VALID,0,VALID,97.0156,VALID,0,VALID,19.4088,VALID,108,VALID,0,
2010-10-05, 00:34:05,VALID,916.584,VALID,0,VALID,97.0156,VALID,0,VALID,19.4283,VALID,108,VALID,0.362891,
2010-10-05, 00:35:05,VALID,916.579,VALID,0,VALID,96.9698,VALID,0,VALID,19.3908,VALID,108,VALID,0.647266,
2010-10-05, 00:36:05,VALID,916.567,VALID,0,VALID,96.9546,VALID,0,VALID,19.3503,VALID,108,VALID,0.555469,
2010-10-05, 00:37:05,VALID,916.572,VALID,0,VALID,96.9241,VALID,0,VALID,19.3113,VALID,108,VALID,0.682813,
2010-10-05, 00:38:05,VALID,916.576,VALID,0,VALID,96.947,VALID,0,VALID,19.2918,VALID,108,VALID,0.542578,
2010-10-05, 00:39:05,VALID,916.549,VALID,0,VALID,96.9622,VALID,0,VALID,19.3128,VALID,108,VALID,0.545703,
2010-10-05, 00:40:05,VALID,916.533,VALID,0,VALID,96.9698,VALID,0,VALID,19.2933,VALID,108,VALID,0.452344,
2010-10-05, 00:41:05,VALID,916.55,VALID,0,VALID,97.0003,VALID,0,VALID,19.2918,VALID,108,VALID,0.173438,
2010-10-05, 00:42:05,VALID,916.516,VALID,0,VALID,97.0232,VALID,0,VALID,19.3323,VALID,108,VALID,0.0613281,
2010-10-05, 00:43:05,VALID,916.523,VALID,0,VALID,96.9775,VALID,0,VALID,19.2933,VALID,108,VALID,0.120703,
2010-10-05, 00:44:05,VALID,916.549,VALID,0,VALID,96.9394,VALID,0,VALID,19.2543,VALID,108,VALID,0.279687,
2010-10-05, 00:45:05,VALID,916.547,VALID,0,VALID,97.008,VALID,0,VALID,19.2933,VALID,108,VALID,0.550391,
2010-10-05, 00:46:05,VALID,916.491,VALID,0,VALID,97.008,VALID,0,VALID,19.2528,VALID,108,VALID,0.398828,
2010-10-05, 00:47:05,VALID,916.507,VALID,0,VALID,97.0232,VALID,0,VALID,19.2528,VALID,108,VALID,0.221484,
2010-10-05, 00:48:05,VALID,916.482,VALID,0,VALID,97.0232,VALID,0,VALID,19.2738,VALID,108,VALID,0.216797,
2010-10-05, 00:49:05,VALID,916.465,VALID,0,VALID,97.0613,VALID,0,VALID,19.2738,VALID,108,VALID,0,
2010-10-05, 00:50:05,VALID,916.435,VALID,0,VALID,97.0766,VALID,0,VALID,19.2723,VALID,108,VALID,0,
2010-10-05, 00:51:05,VALID,916.414,VALID,0,VALID,97.069,VALID,0,VALID,19.3128,VALID,108,VALID,0,
2010-10-05, 00:52:05,VALID,916.413,VALID,0,VALID,97.069,VALID,0,VALID,19.3308,VALID,108,VALID,0.454297,
2010-10-05, 00:53:05,VALID,916.385,VALID,0,VALID,97.0766,VALID,0,VALID,19.2918,VALID,108,VALID,0.302734,
2010-10-05, 00:54:05,VALID,916.371,VALID,0,VALID,97.069,VALID,0,VALID,19.3113,VALID,108,VALID,0.484766,
2010-10-05, 00:55:05,VALID,916.325,VALID,0,VALID,97.0003,VALID,0,VALID,19.3128,VALID,108,VALID,0.655859,
2010-10-05, 00:56:05,VALID,916.329,VALID,0,VALID,96.9775,VALID,0,VALID,19.3113,VALID,108,VALID,0.558203,
2010-10-05, 00:57:05,VALID,916.319,VALID,0,VALID,96.9317,VALID,0.107441,VALID,19.3113,VALID,108,VALID,0.532812,
2010-10-05, 00:58:05,VALID,916.293,VALID,0,VALID,96.9241,VALID,0,VALID,19.3128,VALID,108,VALID,0.694531,
2010-10-05, 00:59:05,VALID,916.305,VALID,0,VALID,96.9241,VALID,0,VALID,19.2933,VALID,108,VALID,0.421875,
2010-10-05, 01:00:05,VALID,916.273,VALID,0,VALID,96.9394,VALID,0,VALID,19.2723,VALID,108,VALID,0.536719,
2010-10-05, 01:01:05,VALID,916.284,VALID,0,VALID,96.9698,VALID,0,VALID,19.2933,VALID,108,VALID,0.525781,
2010-10-05, 01:02:05,VALID,916.285,VALID,0,VALID,96.9927,VALID,0,VALID,19.2723,VALID,108,VALID,0.633984,
2010-10-05, 01:03:05,VALID,916.207,VALID,0,VALID,96.9775,VALID,0,VALID,19.2723,VALID,319,VALID,0.407813,
2010-10-05, 01:04:05,VALID,916.275,VALID,0,VALID,96.9698,VALID,0,VALID,19.3128,VALID,319,VALID,0.245703,
2010-10-05, 01:05:05,VALID,916.227,VALID,0,VALID,97.008,VALID,0,VALID,19.2918,VALID,319,VALID,0.260156,
2010-10-05, 01:06:05,VALID,916.231,VALID,0,VALID,97.008,VALID,0,VALID,19.3113,VALID,319,VALID,0,
2010-10-05, 01:07:05,VALID,916.195,VALID,0,VALID,96.9775,VALID,0,VALID,19.2918,VALID,319,VALID,0,
2010-10-05, 01:08:05,VALID,916.195,VALID,0,VALID,96.9851,VALID,0,VALID,19.2918,VALID,319,VALID,0.201562,
2010-10-05, 01:09:05,VALID,916.225,VALID,0,VALID,97.0156,VALID,0,VALID,19.3323,VALID,319,VALID,0.208594,
2010-10-05, 01:10:05,VALID,916.194,VALID,0,VALID,97.0232,VALID,0,VALID,19.3323,VALID,319,VALID,0.233594,
2010-10-05, 01:11:05,VALID,916.191,VALID,0,VALID,96.9546,VALID,0,VALID,19.2918,VALID,319,VALID,0.260938,
2010-10-05, 01:12:05,VALID,916.209,VALID,0,VALID,96.8936,VALID,0,VALID,19.2723,VALID,319,VALID,0.710547,
2010-10-05, 01:13:05,VALID,916.184,VALID,0,VALID,96.886,VALID,0,VALID,19.2334,VALID,319,VALID,0.821484,
2010-10-05, 01:14:05,VALID,916.171,VALID,0,VALID,96.8784,VALID,0,VALID,19.2348,VALID,319,VALID,0.882422,
2010-10-05, 01:15:05,VALID,916.208,VALID,0,VALID,96.8326,VALID,0,VALID,19.1944,VALID,4,VALID,0.798828,
2010-10-05, 01:16:05,VALID,916.19,VALID,0,VALID,96.7259,VALID,0,VALID,19.1944,VALID,4,VALID,0.820313,
2010-10-05, 01:17:05,VALID,916.168,VALID,0,VALID,96.7107,VALID,0,VALID,19.2139,VALID,5,VALID,0.760547,
2010-10-05, 01:18:05,VALID,916.175,VALID,0,VALID,96.6878,VALID,0,VALID,19.2139,VALID,5,VALID,0.736719,
2010-10-05, 01:19:05,VALID,916.147,VALID,0,VALID,96.642,VALID,0,VALID,19.2139,VALID,5,VALID,0.922266,
2010-10-05, 01:20:05,VALID,916.149,VALID,0,VALID,96.5887,VALID,0,VALID,19.2348,VALID,5,VALID,0.695313,
2010-10-05, 01:21:05,VALID,916.159,VALID,0,VALID,96.5582,VALID,0,VALID,19.2139,VALID,5,VALID,0.764844,
2010-10-05, 01:22:05,VALID,916.114,VALID,0,VALID,96.5201,VALID,0,VALID,19.2348,VALID,5,VALID,0.872266,
2010-10-05, 01:23:05,VALID,916.118,VALID,0,VALID,96.4743,VALID,0,VALID,19.2348,VALID,5,VALID,0.852344,
2010-10-05, 01:24:05,VALID,916.096,VALID,0,VALID,96.4515,VALID,0,VALID,19.2139,VALID,5,VALID,1.09258,
2010-10-05, 01:25:05,VALID,916.098,VALID,0,VALID,96.421,VALID,0,VALID,19.2139,VALID,5,VALID,0.908203,
2010-10-05, 01:26:05,VALID,916.077,VALID,0,VALID,96.3829,VALID,0,VALID,19.2139,VALID,5,VALID,0.932031,
2010-10-05, 01:27:05,VALID,916.047,VALID,0,VALID,96.3447,VALID,0,VALID,19.2348,VALID,5,VALID,0.974219,
2010-10-05, 01:28:05,VALID,916.052,VALID,0,VALID,96.3371,VALID,0,VALID,19.1944,VALID,5,VALID,1.13203,
2010-10-05, 01:29:05,VALID,916.017,VALID,0,VALID,96.3219,VALID,0,VALID,19.2348,VALID,5,VALID,1.00273,
2010-10-05, 01:30:05,VALID,915.995,VALID,0,VALID,96.3219,VALID,0,VALID,19.2139,VALID,5,VALID,1.1,
2010-10-05, 01:31:05,VALID,916.001,VALID,0,VALID,96.3142,VALID,0,VALID,19.2153,VALID,5,VALID,1.06797,
2010-10-05, 01:32:05,VALID,916.017,VALID,0,VALID,96.3371,VALID,0,VALID,19.2139,VALID,5,VALID,1.11719,
2010-10-05, 01:33:05,VALID,915.977,VALID,0,VALID,96.3371,VALID,0,VALID,19.2334,VALID,5,VALID,0.679297,
2010-10-05, 01:34:05,VALID,915.95,VALID,0,VALID,96.3295,VALID,0,VALID,19.2334,VALID,5,VALID,0.846484,
2010-10-05, 01:35:05,VALID,915.956,VALID,0,VALID,96.3066,VALID,0.107441,VALID,19.2528,VALID,5,VALID,0.848828,
2010-10-05, 01:36:05,VALID,915.932,VALID,0,VALID,96.3219,VALID,0,VALID,19.2528,VALID,5,VALID,0.449219,
2010-10-05, 01:37:05,VALID,915.98,VALID,0,VALID,96.3447,VALID,0,VALID,19.2528,VALID,5,VALID,0.347656,
2010-10-05, 01:38:05,VALID,915.932,VALID,0,VALID,96.3295,VALID,0.107441,VALID,19.2528,VALID,5,VALID,0.704687,
2010-10-05, 01:39:05,VALID,915.959,VALID,0,VALID,96.3371,VALID,0,VALID,19.2723,VALID,5,VALID,0.36875,
2010-10-05, 01:40:05,VALID,915.925,VALID,0,VALID,96.36,VALID,0,VALID,19.2918,VALID,5,VALID,0.775,
2010-10-05, 01:41:05,VALID,915.921,VALID,0,VALID,96.2609,VALID,0,VALID,19.3128,VALID,5,VALID,0.996094,
2010-10-05, 01:42:05,VALID,915.917,VALID,0,VALID,96.1923,VALID,0,VALID,19.3128,VALID,5,VALID,1.0832,
2010-10-05, 01:43:05,VALID,915.92,VALID,0,VALID,96.116,VALID,0,VALID,19.3113,VALID,5,VALID,0.819141,
2010-10-05, 01:44:05,VALID,915.907,VALID,0,VALID,96.0322,VALID,0,VALID,19.3503,VALID,350,VALID,0.589844,
2010-10-05, 01:45:05,VALID,915.892,VALID,0,VALID,95.9407,VALID,0,VALID,19.3713,VALID,350,VALID,0.231641,
2010-10-05, 01:46:05,VALID,915.907,VALID,0,VALID,95.9559,VALID,0,VALID,19.4103,VALID,350,VALID,0.480469,
2010-10-05, 01:47:05,VALID,915.898,VALID,0,VALID,95.9178,VALID,0,VALID,19.3503,VALID,350,VALID,0.163672,
2010-10-05, 01:48:05,VALID,915.917,VALID,0,VALID,95.9636,VALID,0,VALID,19.3698,VALID,350,VALID,0.223828,
2010-10-05, 01:49:05,VALID,915.947,VALID,0,VALID,95.9407,VALID,0,VALID,19.3308,VALID,350,VALID,0.311328,
2010-10-05, 01:50:05,VALID,915.928,VALID,0,VALID,96.0627,VALID,0,VALID,19.3308,VALID,350,VALID,0.200391,
2010-10-05, 01:51:05,VALID,915.915,VALID,0,VALID,95.9864,VALID,0.107441,VALID,19.3503,VALID,350,VALID,0.354297,
2010-10-05, 01:52:05,VALID,915.942,VALID,0,VALID,95.9636,VALID,0,VALID,19.3323,VALID,350,VALID,0.949609,
2010-10-05, 01:53:05,VALID,915.922,VALID,0,VALID,95.9102,VALID,0,VALID,19.2918,VALID,350,VALID,0.937891,
2010-10-05, 01:54:05,VALID,915.892,VALID,0,VALID,95.8645,VALID,0,VALID,19.3128,VALID,350,VALID,0.923828,
2010-10-05, 01:55:05,VALID,915.897,VALID,0,VALID,95.7958,VALID,0,VALID,19.2933,VALID,350,VALID,0.991797,
2010-10-05, 01:56:05,VALID,915.897,VALID,0,VALID,95.7349,VALID,0,VALID,19.2723,VALID,350,VALID,0.960938,
2010-10-05, 01:57:05,VALID,915.847,VALID,0,VALID,95.651,VALID,0,VALID,19.2528,VALID,351,VALID,1.16992,
2010-10-05, 01:58:05,VALID,915.842,VALID,0,VALID,95.5595,VALID,0,VALID,19.2528,VALID,351,VALID,0.671484,
2010-10-05, 01:59:04,VALID,915.833,VALID,0,VALID,95.5138,VALID,0,VALID,19.2723,VALID,351,VALID,0.713281,
2010-10-05, 02:00:04,VALID,915.823,VALID,0,VALID,95.3537,VALID,0,VALID,19.2918,VALID,351,VALID,0.599609,
2010-10-05, 02:01:04,VALID,915.803,VALID,0,VALID,95.2927,VALID,0,VALID,19.3113,VALID,351,VALID,0.421875,
2010-10-05, 02:02:04,VALID,915.771,VALID,0,VALID,95.1174,VALID,0,VALID,19.3113,VALID,351,VALID,0.847656,
2010-10-05, 02:03:04,VALID,915.782,VALID,0,VALID,94.9649,VALID,0,VALID,19.3518,VALID,351,VALID,0.512891,
2010-10-05, 02:04:04,VALID,915.762,VALID,0,VALID,94.8582,VALID,0,VALID,19.3518,VALID,351,VALID,0.674609,
2010-10-05, 02:05:04,VALID,915.772,VALID,0,VALID,94.6752,VALID,0,VALID,19.3308,VALID,351,VALID,0.804297,
2010-10-05, 02:06:04,VALID,915.748,VALID,0,VALID,94.5456,VALID,0,VALID,19.3323,VALID,351,VALID,0.635938,
2010-10-05, 02:07:04,VALID,915.76,VALID,0,VALID,94.5151,VALID,0,VALID,19.3113,VALID,351,VALID,0.780078,
2010-10-05, 02:08:04,VALID,915.748,VALID,0,VALID,94.4465,VALID,0,VALID,19.2723,VALID,351,VALID,0.967969,
2010-10-05, 02:09:04,VALID,915.74,VALID,0,VALID,94.5532,VALID,0.107441,VALID,19.2723,VALID,351,VALID,1.05352,
2010-10-05, 02:10:04,VALID,915.717,VALID,0,VALID,94.5456,VALID,0,VALID,19.2528,VALID,351,VALID,0.729297,
2010-10-05, 02:11:04,VALID,915.73,VALID,0,VALID,94.5609,VALID,0,VALID,19.2543,VALID,351,VALID,0.566797,
2010-10-05, 02:12:04,VALID,915.703,VALID,0,VALID,94.599,VALID,0,VALID,19.2348,VALID,351,VALID,0.468359,
2010-10-05, 02:13:04,VALID,915.681,VALID,0,VALID,94.7667,VALID,0,VALID,19.2153,VALID,351,VALID,0.735937,
2010-10-05, 02:14:04,VALID,915.705,VALID,0,VALID,94.8582,VALID,0,VALID,19.1958,VALID,351,VALID,0.389062,
2010-10-05, 02:15:04,VALID,915.699,VALID,0,VALID,94.8887,VALID,0,VALID,19.1554,VALID,351,VALID,0.247656,
2010-10-05, 02:16:04,VALID,915.699,VALID,0,VALID,95.064,VALID,0.107441,VALID,19.1958,VALID,351,VALID,0,
2010-10-05, 02:17:04,VALID,915.667,VALID,0,VALID,95.1479,VALID,0.107441,VALID,19.1958,VALID,351,VALID,0.189063,
2010-10-05, 02:18:04,VALID,915.649,VALID,0,VALID,95.186,VALID,0.107441,VALID,19.1554,VALID,351,VALID,0.547266,
2010-10-05, 02:19:04,VALID,915.602,VALID,0,VALID,95.1021,VALID,0.107441,VALID,19.1554,VALID,351,VALID,0.540234,
2010-10-05, 02:20:04,VALID,915.629,VALID,0,VALID,95.0335,VALID,0,VALID,19.1554,VALID,351,VALID,0.371484,
2010-10-05, 02:21:04,VALID,915.632,VALID,0,VALID,95.0183,VALID,0.107441,VALID,19.1749,VALID,351,VALID,0.442969,
2010-10-05, 02:22:04,VALID,915.61,VALID,0,VALID,95.0183,VALID,0,VALID,19.2139,VALID,351,VALID,0.454297,
2010-10-05, 02:23:04,VALID,915.573,VALID,0,VALID,94.942,VALID,0,VALID,19.2139,VALID,351,VALID,0.176953,
2010-10-05, 02:24:04,VALID,915.623,VALID,0,VALID,94.9039,VALID,0,VALID,19.2738,VALID,351,VALID,0.199609,
2010-10-05, 02:25:04,VALID,915.623,VALID,0,VALID,94.9039,VALID,0,VALID,19.3128,VALID,351,VALID,0,
2010-10-05, 02:26:04,VALID,915.615,VALID,0,VALID,94.7972,VALID,0,VALID,19.2918,VALID,351,VALID,0,
2010-10-05, 02:27:04,VALID,915.598,VALID,0,VALID,94.7057,VALID,0,VALID,19.2933,VALID,351,VALID,0,
2010-10-05, 02:28:04,VALID,915.591,VALID,0,VALID,94.7286,VALID,0,VALID,19.2543,VALID,351,VALID,0.0457031,
2010-10-05, 02:29:04,VALID,915.574,VALID,0,VALID,94.7819,VALID,0,VALID,19.2738,VALID,351,VALID,0.00820312,
2010-10-05, 02:30:04,VALID,915.554,VALID,0,VALID,94.7438,VALID,0,VALID,19.2543,VALID,351,VALID,0,
2010-10-05, 02:31:04,VALID,915.508,VALID,0,VALID,94.8048,VALID,0,VALID,19.2139,VALID,351,VALID,0.125,
2010-10-05, 02:32:04,VALID,915.498,VALID,0,VALID,94.7972,VALID,0,VALID,19.2153,VALID,351,VALID,0.241016,
2010-10-05, 02:33:04,VALID,915.475,VALID,0,VALID,94.7743,VALID,0,VALID,19.1554,VALID,351,VALID,0,
2010-10-05, 02:34:04,VALID,915.453,VALID,0,VALID,94.7591,VALID,0,VALID,19.1178,VALID,351,VALID,0.309766,
2010-10-05, 02:35:04,VALID,915.459,VALID,0,VALID,94.599,VALID,0,VALID,19.0384,VALID,351,VALID,0.319922,
2010-10-05, 02:36:04,VALID,915.462,VALID,0,VALID,94.9649,VALID,0,VALID,19.0398,VALID,351,VALID,0.30625,
2010-10-05, 02:37:04,VALID,915.432,VALID,0,VALID,95.1936,VALID,0,VALID,19.0203,VALID,351,VALID,0.21875,
2010-10-05, 02:38:04,VALID,915.459,VALID,0,VALID,95.4223,VALID,0,VALID,18.9994,VALID,351,VALID,0.586719,
2010-10-05, 02:39:04,VALID,915.429,VALID,0,VALID,95.5748,VALID,0,VALID,19.0203,VALID,351,VALID,0,
2010-10-05, 02:40:04,VALID,915.434,VALID,0,VALID,95.6586,VALID,0,VALID,18.9994,VALID,351,VALID,0.0347656,
2010-10-05, 02:41:04,VALID,915.421,VALID,0,VALID,95.7196,VALID,0,VALID,18.9994,VALID,351,VALID,0,
2010-10-05, 02:42:04,VALID,915.444,VALID,0,VALID,95.7425,VALID,0,VALID,19.0008,VALID,351,VALID,0,
2010-10-05, 02:43:04,VALID,915.405,VALID,0,VALID,95.7349,VALID,0,VALID,19.0008,VALID,351,VALID,0,
2010-10-05, 02:44:04,VALID,915.402,VALID,0,VALID,95.773,VALID,0,VALID,19.0008,VALID,351,VALID,0,
2010-10-05, 02:45:04,VALID,915.398,VALID,0,VALID,95.7958,VALID,0,VALID,18.9814,VALID,351,VALID,0,
2010-10-05, 02:46:04,VALID,915.417,VALID,0,VALID,95.8187,VALID,0,VALID,18.9619,VALID,351,VALID,0,
2010-10-05, 02:47:04,VALID,915.387,VALID,0,VALID,95.7882,VALID,0,VALID,18.9424,VALID,351,VALID,0,
2010-10-05, 02:48:04,VALID,915.357,VALID,0,VALID,95.773,VALID,0,VALID,18.9229,VALID,351,VALID,0,
2010-10-05, 02:49:04,VALID,915.352,VALID,0,VALID,95.59,VALID,0,VALID,18.8644,VALID,351,VALID,0,
2010-10-05, 02:50:04,VALID,915.345,VALID,0,VALID,95.5671,VALID,0,VALID,18.8059,VALID,351,VALID,0,
2010-10-05, 02:51:04,VALID,915.302,VALID,0,VALID,95.8111,VALID,0,VALID,18.8254,VALID,351,VALID,0.450391,
2010-10-05, 02:52:04,VALID,915.294,VALID,0,VALID,96.0322,VALID,0,VALID,18.8644,VALID,351,VALID,0.455859,
2010-10-05, 02:53:04,VALID,915.258,VALID,0,VALID,96.1846,VALID,0,VALID,18.9034,VALID,351,VALID,0.365234,
2010-10-05, 02:54:04,VALID,915.251,VALID,0,VALID,96.2609,VALID,0,VALID,18.9424,VALID,351,VALID,0.0933594,
2010-10-05, 02:55:04,VALID,915.253,VALID,0,VALID,96.1236,VALID,0,VALID,18.9229,VALID,351,VALID,0,
2010-10-05, 02:56:04,VALID,915.232,VALID,0,VALID,96.1008,VALID,0,VALID,18.9034,VALID,351,VALID,0,
2010-10-05, 02:57:04,VALID,915.232,VALID,0,VALID,96.0703,VALID,0,VALID,18.9034,VALID,351,VALID,0,
2010-10-05, 02:58:04,VALID,915.212,VALID,0,VALID,96.0093,VALID,0,VALID,18.8839,VALID,351,VALID,0,
2010-10-05, 02:59:04,VALID,915.186,VALID,0,VALID,95.9331,VALID,0,VALID,18.8254,VALID,351,VALID,0,
2010-10-05, 03:00:04,VALID,915.164,VALID,0,VALID,95.8721,VALID,0,VALID,18.8658,VALID,351,VALID,0,
2010-10-05, 03:01:04,VALID,915.145,VALID,0,VALID,95.9178,VALID,0,VALID,18.8254,VALID,351,VALID,0,
2010-10-05, 03:02:04,VALID,915.164,VALID,0,VALID,95.9788,VALID,0,VALID,18.8059,VALID,351,VALID,0.075,
2010-10-05, 03:03:04,VALID,915.145,VALID,0,VALID,96.0093,VALID,0,VALID,18.8059,VALID,351,VALID,0,
2010-10-05, 03:04:04,VALID,915.142,VALID,0,VALID,95.7349,VALID,0,VALID,18.7474,VALID,351,VALID,0,
2010-10-05, 03:05:04,VALID,915.137,VALID,0,VALID,95.6967,VALID,0,VALID,18.7279,VALID,351,VALID,0.00078125,
2010-10-05, 03:06:04,VALID,915.144,VALID,0,VALID,95.4528,VALID,0,VALID,18.6109,VALID,351,VALID,0.431641,
2010-10-05, 03:07:04,VALID,915.155,VALID,0,VALID,95.5062,VALID,0,VALID,18.572,VALID,351,VALID,0.564844,
2010-10-05, 03:08:04,VALID,915.153,VALID,0,VALID,95.6357,VALID,0,VALID,18.5135,VALID,351,VALID,0.63125,
2010-10-05, 03:09:04,VALID,915.152,VALID,0,VALID,96.0017,VALID,0,VALID,18.533,VALID,351,VALID,0.887891,
2010-10-05, 03:10:04,VALID,915.152,VALID,0,VALID,96.299,VALID,0,VALID,18.5525,VALID,351,VALID,0.852344,
2010-10-05, 03:11:04,VALID,915.179,VALID,0,VALID,96.4362,VALID,0,VALID,18.5914,VALID,351,VALID,0.921094,
2010-10-05, 03:12:04,VALID,915.172,VALID,0,VALID,96.5506,VALID,0,VALID,18.6109,VALID,351,VALID,0.694141,
2010-10-05, 03:13:04,VALID,915.151,VALID,0,VALID,96.5506,VALID,0,VALID,18.6109,VALID,351,VALID,0.555078,
2010-10-05, 03:14:04,VALID,915.156,VALID,0,VALID,96.6039,VALID,0,VALID,18.5914,VALID,351,VALID,0.626172,
2010-10-05, 03:15:04,VALID,915.167,VALID,0,VALID,96.6344,VALID,0,VALID,18.5929,VALID,351,VALID,0.444141,
2010-10-05, 03:16:04,VALID,915.158,VALID,0,VALID,96.6573,VALID,0,VALID,18.5914,VALID,351,VALID,0.470703,
2010-10-05, 03:17:04,VALID,915.17,VALID,0,VALID,96.7183,VALID,0,VALID,18.6109,VALID,351,VALID,0.512891,
2010-10-05, 03:18:04,VALID,915.194,VALID,0,VALID,96.8021,VALID,0,VALID,18.6109,VALID,351,VALID,0.541406,
2010-10-05, 03:19:04,VALID,915.176,VALID,0,VALID,96.8784,VALID,0,VALID,18.6499,VALID,351,VALID,0.475781,
2010-10-05, 03:20:04,VALID,915.195,VALID,0,VALID,96.9165,VALID,0,VALID,18.7084,VALID,351,VALID,0.394531,
2010-10-05, 03:21:04,VALID,915.18,VALID,0,VALID,96.9241,VALID,0,VALID,18.6889,VALID,351,VALID,0.177734,
2010-10-05, 03:22:04,VALID,915.165,VALID,0,VALID,96.9546,VALID,0,VALID,18.7084,VALID,351,VALID,0.358594,
2010-10-05, 03:23:04,VALID,915.155,VALID,0,VALID,96.9317,VALID,0,VALID,18.6903,VALID,351,VALID,0.194141,
2010-10-05, 03:24:04,VALID,915.155,VALID,0,VALID,96.9317,VALID,0,VALID,18.6708,VALID,351,VALID,0,
2010-10-05, 03:25:04,VALID,915.157,VALID,0,VALID,96.9241,VALID,0,VALID,18.6513,VALID,351,VALID,0,
2010-10-05, 03:26:04,VALID,915.129,VALID,0,VALID,96.9317,VALID,0,VALID,18.6304,VALID,351,VALID,0.782422,
2010-10-05, 03:27:04,VALID,915.114,VALID,0,VALID,97.0766,VALID,0,VALID,18.7279,VALID,351,VALID,0.964844,
2010-10-05, 03:28:04,VALID,915.075,VALID,0,VALID,97.1604,VALID,0,VALID,18.7864,VALID,351,VALID,1.27891,
2010-10-05, 03:29:04,VALID,915.05,VALID,0,VALID,97.1071,VALID,0,VALID,18.8059,VALID,351,VALID,1.36094,
2010-10-05, 03:30:04,VALID,915.035,VALID,0,VALID,96.9546,VALID,0,VALID,18.8073,VALID,351,VALID,1.14453,
2010-10-05, 03:31:04,VALID,915.041,VALID,0,VALID,96.9317,VALID,0,VALID,18.7669,VALID,351,VALID,0.432031,
2010-10-05, 03:32:04,VALID,915.036,VALID,0,VALID,96.8555,VALID,0,VALID,18.7084,VALID,351,VALID,0.708203,
2010-10-05, 03:33:04,VALID,915.031,VALID,0,VALID,97.0003,VALID,0,VALID,18.7669,VALID,351,VALID,0.594531,
2010-10-05, 03:34:04,VALID,915.003,VALID,0,VALID,96.9622,VALID,0,VALID,18.7669,VALID,351,VALID,0,
2010-10-05, 03:35:04,VALID,914.986,VALID,0,VALID,97.0156,VALID,0,VALID,18.7864,VALID,351,VALID,0.589063,
2010-10-05, 03:36:04,VALID,914.968,VALID,0,VALID,96.9012,VALID,0,VALID,18.7683,VALID,351,VALID,0.78125,
2010-10-05, 03:37:04,VALID,914.997,VALID,0,VALID,96.5963,VALID,0,VALID,18.5914,VALID,351,VALID,0.785156,
2010-10-05, 03:38:04,VALID,914.951,VALID,0,VALID,96.8021,VALID,0,VALID,18.6319,VALID,351,VALID,0.688281,
2010-10-05, 03:39:04,VALID,914.951,VALID,0,VALID,96.8555,VALID,0,VALID,18.6124,VALID,351,VALID,0.346484,
2010-10-05, 03:40:04,VALID,914.986,VALID,0,VALID,96.825,VALID,0,VALID,18.5929,VALID,351,VALID,0.0675781,
2010-10-05, 03:41:04,VALID,915.01,VALID,0,VALID,96.7869,VALID,0,VALID,18.5525,VALID,351,VALID,0.180469,
2010-10-05, 03:42:04,VALID,915.045,VALID,0,VALID,96.8098,VALID,0,VALID,18.5135,VALID,351,VALID,0.227344,
2010-10-05, 03:43:04,VALID,915.044,VALID,0,VALID,96.7793,VALID,0,VALID,18.494,VALID,351,VALID,0.413672,
2010-10-05, 03:44:04,VALID,915.045,VALID,0,VALID,96.7793,VALID,0,VALID,18.455,VALID,351,VALID,0.669922,
2010-10-05, 03:45:04,VALID,915.066,VALID,0,VALID,96.8174,VALID,0,VALID,18.455,VALID,351,VALID,0.379687,
2010-10-05, 03:46:04,VALID,915.073,VALID,0,VALID,96.8403,VALID,0,VALID,18.4355,VALID,351,VALID,0.309766,
2010-10-05, 03:47:04,VALID,915.082,VALID,0,VALID,96.8631,VALID,0,VALID,18.4355,VALID,351,VALID,0.0105469,